Zurück zum Katalog

STARLINK-1272

AktivKommunikationVLEO
NORAD 45386·PAYLOAD·🇺🇸 United States

Gestartet Mar 18, 2020 von Cape Canaveral Space Force Station

Loading…

Nächste Überflüge (nächste 24 Stunden)

TLE

AktuellSource: CelesTrak SupGP

Epoche: Sep 14, 2026, 12:28 UTC

1 45386C 20019AC  26257.51993056  .00230980  00000+0  57258-3 0  2576
2 45386  53.0294 251.5084 0006862  36.4443 196.3576 15.95013804    16

Verfolge STARLINK-1272 in Echtzeit mit AllMySat

Download on the App Store